Weather History for KCKC - July, 2013

Change the Weather History Date:

Saturday, July 13, 2013

  Actual Average Record
Temperature  
Mean Temperature 68 °F -  
Max Temperature 73 °F 71 °F 86 °F (1998)
Min Temperature 62 °F 51 °F 41 °F (2001)
Cooling Degree Days 2    
Growing Degree Days 18 (Base 50)    
Moisture  
Dew Point 60 °F    
Average Humidity 77    
Maximum Humidity 88    
Minimum Humidity 64    
Precipitation  
Precipitation 0.05 in - - ()
Sea Level Pressure  
Sea Level Pressure 30.06 in    
Wind  
Wind Speed 6 mph (SSW)    
Max Wind Speed 10 mph    
Max Gust Speed 16 mph    
Visibility 9 miles    
Events Rain    
Averages and records for this station are not official NWS values.
T = Trace of Precipitation, MM = Missing Value Source: NWS Daily Summary

Daily Weather History Graph

Daily Weather History Graph

Search for Another Location

Airport or City:

Trip Planner

Search our weather history database for the weather conditions in past years. The results will help you decide how hot, cold, wet, or windy it might be!

Date:

Astronomy

Jul. 13, 2013 Rise Set
Actual Time 5:16 AM CDT 8:57 PM CDT
Civil Twilight 4:37 AM CDT 9:36 PM CDT
Nautical Twilight 3:44 AM CDT 10:29 PM CDT
Astronomical Twilight 2:28 AM CDT 11:43 PM CDT
Moon 11:00 AM CDT (7/13) 11:08 PM CDT (7/13)
Length of Visible Light 16h 59m
Length of Day
15h 40m
Waxing Crescent, 26% of the Moon is Illuminated
Jul 13
Waxing Crescent
Jul 15
First Quarter
Jul 22
Full
Jul 29
Last Quarter
Aug 6
New

Hourly Weather History & Observations

Time (CDT) Temp. Dew Point Humidity Pressure Visibility Wind Dir Wind Speed Gust Speed Precip Events Conditions
12:14 AM 68.0 °F 55.4 °F 64% 29.99 in 10.0 mi South 6.9 mph - N/A   Clear
12:33 AM 68.0 °F 55.4 °F 64% 29.99 in 10.0 mi South 6.9 mph - N/A Rain Light Rain
12:53 AM 64.4 °F 57.2 °F 77% 30.01 in 7.0 mi South 5.8 mph - N/A Rain Light Rain
1:14 AM 64.4 °F 57.2 °F 77% 30.01 in 10.0 mi South 3.5 mph - N/A   Scattered Clouds
1:34 AM 64.4 °F 57.2 °F 77% 30.02 in 10.0 mi SSW 3.5 mph - N/A   Clear
1:53 AM 66.2 °F 57.2 °F 73% 30.01 in 10.0 mi South 6.9 mph - N/A   Scattered Clouds
2:13 AM 66.2 °F 57.2 °F 73% 30.00 in 10.0 mi South 8.1 mph - N/A Rain Light Rain
2:34 AM 66.2 °F 57.2 °F 73% 29.99 in 10.0 mi SSW 8.1 mph - N/A Rain Light Rain
2:54 AM 66.2 °F 57.2 °F 73% 29.99 in 10.0 mi South 9.2 mph 16.1 mph N/A Rain Light Rain
3:13 AM 64.4 °F 57.2 °F 77% 29.97 in 10.0 mi South 9.2 mph - N/A Rain Rain
3:33 AM 64.4 °F 57.2 °F 77% 29.98 in 7.0 mi South 8.1 mph - 0.01 in Rain Rain
3:54 AM 62.6 °F 57.2 °F 82% 29.96 in 10.0 mi South 6.9 mph - 0.03 in Rain Light Rain
4:13 AM 62.6 °F 57.2 °F 82% 29.96 in 10.0 mi South 5.8 mph 9.2 mph 0.01 in Rain Light Rain
4:34 AM 62.6 °F 57.2 °F 82% 29.99 in 7.0 mi SSW 5.8 mph - 0.01 in   Drizzle
4:53 AM 62.6 °F 57.2 °F 82% 30.00 in 7.0 mi SW 4.6 mph - 0.01 in Rain Light Rain
5:13 AM 62.6 °F 59.0 °F 88% 29.99 in 7.0 mi SSW 3.5 mph - 0.01 in   Overcast
5:34 AM 62.6 °F 59.0 °F 88% 30.00 in 5.0 mi SSW 6.9 mph - 0.01 in Rain Rain
5:54 AM 62.6 °F 59.0 °F 88% 30.02 in 4.0 mi South 4.6 mph - 0.01 in Rain Light Rain
6:13 AM 62.6 °F 59.0 °F 88% 30.03 in 4.0 mi SSW 4.6 mph - N/A   Mostly Cloudy
6:33 AM 62.6 °F 59.0 °F 88% 30.03 in 7.0 mi South 6.9 mph - N/A   Scattered Clouds
6:54 AM 62.6 °F 57.2 °F 82% 30.03 in 10.0 mi SSW 6.9 mph - N/A   Scattered Clouds
7:14 AM 62.6 °F 59.0 °F 88% 30.03 in 10.0 mi SW 4.6 mph - N/A   Scattered Clouds
7:33 AM 62.6 °F 57.2 °F 82% 30.02 in 10.0 mi SW 5.8 mph - N/A   Scattered Clouds
7:53 AM 64.4 °F 59.0 °F 83% 30.04 in 10.0 mi SSW 6.9 mph - N/A   Scattered Clouds
8:14 AM 64.4 °F 57.2 °F 77% 30.04 in 10.0 mi SSW 8.1 mph - N/A   Mostly Cloudy
8:34 AM 64.4 °F 59.0 °F 83% 30.03 in 10.0 mi SW 6.9 mph - N/A   Mostly Cloudy
8:53 AM 64.4 °F 59.0 °F 83% 30.04 in 10.0 mi SSW 6.9 mph - N/A   Scattered Clouds
9:14 AM 64.4 °F 59.0 °F 83% 30.04 in 10.0 mi South 4.6 mph - N/A   Clear
9:33 AM 66.2 °F 59.0 °F 78% 30.05 in 10.0 mi SSW 3.5 mph - N/A   Clear
9:54 AM 68.0 °F 60.8 °F 78% 30.05 in 10.0 mi South 6.9 mph - N/A   Scattered Clouds
10:13 AM 66.2 °F 60.8 °F 83% 30.06 in 10.0 mi Calm Calm - N/A   Clear
10:33 AM 68.0 °F 60.8 °F 78% 30.05 in 10.0 mi Calm Calm - N/A   Scattered Clouds
10:54 AM 69.8 °F 62.6 °F 78% 30.06 in 10.0 mi South 4.6 mph - N/A   Scattered Clouds
11:13 AM 69.8 °F 60.8 °F 73% 30.06 in 10.0 mi SSE 3.5 mph - N/A   Clear
11:34 AM 69.8 °F 60.8 °F 73% 30.06 in 10.0 mi South 5.8 mph - N/A   Clear
11:54 AM 71.6 °F 62.6 °F 73% 30.06 in 10.0 mi South 4.6 mph - N/A   Clear
12:13 PM 73.4 °F 62.6 °F 69% 30.06 in 10.0 mi SSE 8.1 mph - N/A   Clear
12:34 PM 73.4 °F 62.6 °F 69% 30.07 in 10.0 mi SSE 5.8 mph - N/A   Scattered Clouds
12:53 PM 69.8 °F 60.8 °F 73% 30.07 in 10.0 mi SSE 6.9 mph - N/A   Scattered Clouds
1:14 PM 71.6 °F 62.6 °F 73% 30.07 in 10.0 mi SSE 8.1 mph - N/A   Scattered Clouds
1:34 PM 71.6 °F 62.6 °F 73% 30.08 in 10.0 mi South 6.9 mph - N/A   Scattered Clouds
1:53 PM 69.8 °F 60.8 °F 73% 30.08 in 10.0 mi South 6.9 mph - N/A   Mostly Cloudy
2:14 PM 69.8 °F 62.6 °F 78% 30.08 in 10.0 mi SSW 4.6 mph - N/A   Scattered Clouds
2:34 PM 69.8 °F 62.6 °F 78% 30.09 in 10.0 mi SSW 4.6 mph - N/A   Scattered Clouds
2:53 PM 71.6 °F 62.6 °F 73% 30.10 in 10.0 mi SSW 3.5 mph - N/A   Scattered Clouds
3:14 PM 71.6 °F 62.6 °F 73% 30.10 in 10.0 mi South 8.1 mph - N/A   Scattered Clouds
3:34 PM 71.6 °F 62.6 °F 73% 30.10 in 10.0 mi SSW 9.2 mph - N/A   Clear
3:53 PM 71.6 °F 62.6 °F 73% 30.10 in 10.0 mi SSW 10.4 mph 16.1 mph N/A   Scattered Clouds
4:14 PM 71.6 °F 62.6 °F 73% 30.10 in 10.0 mi SSW 8.1 mph - N/A   Mostly Cloudy
4:34 PM 71.6 °F 62.6 °F 73% 30.10 in 10.0 mi SSW 8.1 mph - N/A   Mostly Cloudy
4:53 PM 73.4 °F 62.6 °F 69% 30.10 in 10.0 mi SSW 6.9 mph - N/A   Mostly Cloudy
5:14 PM 73.4 °F 62.6 °F 69% 30.10 in 10.0 mi SSW 8.1 mph - N/A   Mostly Cloudy
5:33 PM 73.4 °F 62.6 °F 69% 30.09 in 10.0 mi South 6.9 mph 16.1 mph N/A   Scattered Clouds
5:54 PM 73.4 °F 62.6 °F 69% 30.09 in 10.0 mi South 5.8 mph - N/A   Clear
6:13 PM 73.4 °F 62.6 °F 69% 30.08 in 10.0 mi South 9.2 mph - N/A   Clear
6:33 PM 73.4 °F 62.6 °F 69% 30.09 in 10.0 mi South 10.4 mph - N/A   Scattered Clouds
6:54 PM 71.6 °F 62.6 °F 73% 30.10 in 10.0 mi SSW 8.1 mph - N/A   Mostly Cloudy
7:13 PM 71.6 °F 62.6 °F 73% 30.09 in 10.0 mi SSW 4.6 mph - N/A   Mostly Cloudy
7:34 PM 71.6 °F 62.6 °F 73% 30.10 in 10.0 mi South 4.6 mph - N/A   Overcast
7:53 PM 69.8 °F 62.6 °F 78% 30.10 in 10.0 mi SW 3.5 mph - N/A   Overcast
8:14 PM 69.8 °F 62.6 °F 78% 30.10 in 10.0 mi SSW 3.5 mph - N/A   Overcast
8:33 PM 69.8 °F 62.6 °F 78% 30.10 in 10.0 mi South 3.5 mph - N/A   Overcast
8:53 PM 69.8 °F 62.6 °F 78% 30.10 in 10.0 mi SSW 4.6 mph - N/A   Overcast
9:13 PM 69.8 °F 62.6 °F 78% 30.10 in 10.0 mi SSW 6.9 mph - N/A   Overcast
9:34 PM 69.8 °F 62.6 °F 78% 30.11 in 7.0 mi SSW 6.9 mph - N/A   Overcast
9:53 PM 68.0 °F 62.6 °F 83% 30.12 in 5.0 mi South 6.9 mph - N/A   Haze
10:13 PM 66.2 °F 62.6 °F 88% 30.12 in 4.0 mi SW 6.9 mph - N/A   Light Drizzle
10:34 PM 66.2 °F 60.8 °F 83% 30.12 in 10.0 mi SSW 5.8 mph - N/A   Overcast
10:53 PM 66.2 °F 60.8 °F 83% 30.13 in 10.0 mi SSW 5.8 mph - N/A   Overcast
11:14 PM 66.2 °F 60.8 °F 83% 30.14 in 10.0 mi SSW 4.6 mph - N/A   Overcast
11:33 PM 66.2 °F 60.8 °F 83% 30.14 in 10.0 mi South 3.5 mph - N/A   Overcast
11:54 PM 66.2 °F 60.8 °F 83% 30.14 in 10.0 mi SSW 5.8 mph - N/A   Overcast